When you browse on this site, cookies collect data to enhance your experience and personalize the content and advertising you see.
Visit our Privacy Policy to learn more. By continuing to use the site, you agree to this use of cookies and data.
  • In Lithuania
  • List of Countries
  • For 7 days
  • Water Temperature
  • Satellite Maps
  • Weather Map
  • Weather Widgets
  • user-avatar
    Login

    Hourly Weather Kepino

    Today, 19 July, Friday

    Time Temperature Precipitation Wind Pressure Humidity
    00:00 +18°C° 0 mm 1 mps 745 mmHg 76%
    01:00 +17°C° 0 mm 2 mps 745 mmHg 76%
    02:00 +17°C° 0.2 mm 2 mps 745 mmHg 77%
    03:00 +16°C° 0.2 mm 2 mps 745 mmHg 79%
    04:00 +16°C° 0.2 mm 1 mps 745 mmHg 80%
    05:00 +17°C° 0.3 mm 2 mps 745 mmHg 79%
    06:00 +19°C° 0.3 mm 2 mps 746 mmHg 78%
    07:00 +20°C° 0 mm 2 mps 746 mmHg 76%
    08:00 +23°C° 0.2 mm 2 mps 746 mmHg 69%
    09:00 +24°C° 0.2 mm 3 mps 746 mmHg 63%
    10:00 +26°C° 0.2 mm 3 mps 746 mmHg 57%
    11:00 +27°C° 0.1 mm 3 mps 746 mmHg 53%
    12:00 +28°C° 0.1 mm 2 mps 746 mmHg 48%
    13:00 +28°C° 0 mm 2 mps 746 mmHg 44%
    14:00 +26°C° 0.2 mm 3 mps 746 mmHg 53%
    15:00 +23°C° 0.2 mm 4 mps 746 mmHg 62%
    16:00 +22°C° 0.2 mm 5 mps 746 mmHg 71%
    17:00 +21°C° 0.2 mm 3 mps 746 mmHg 73%
    18:00 +21°C° 0.2 mm 2 mps 746 mmHg 75%
    19:00 +22°C° 0.2 mm 1 mps 746 mmHg 77%
    20:00 +21°C° 0.1 mm 1 mps 746 mmHg 80%
    21:00 +20°C° 0.1 mm 1 mps 746 mmHg 83%
    22:00 +19°C° 0.1 mm 1 mps 747 mmHg 86%
    23:00 +18°C° 0 mm 1 mps 747 mmHg 86%

    Tomorrow, 20 July, Saturday

    Time Temperature Precipitation Wind Pressure Humidity
    00:00 +18°C° 0 mm 1 mps 747 mmHg 87%
    01:00 +18°C° 0 mm 1 mps 747 mmHg 87%
    02:00 +18°C° 0 mm 1 mps 747 mmHg 88%
    03:00 +18°C° 0 mm 1 mps 747 mmHg 88%
    04:00 +16°C° 0 mm 1 mps 747 mmHg 88%
    05:00 +19°C° 0 mm 1 mps 747 mmHg 83%
    06:00 +20°C° 0 mm 1 mps 747 mmHg 78%
    07:00 +22°C° 0 mm 1 mps 747 mmHg 73%
    08:00 +24°C° 0 mm 1 mps 747 mmHg 68%
    09:00 +25°C° 0 mm 1 mps 748 mmHg 62%
    10:00 +27°C° 0 mm 1 mps 748 mmHg 57%
    11:00 +27°C° 0.1 mm 1 mps 748 mmHg 55%
    12:00 +28°C° 0.1 mm 2 mps 747 mmHg 52%
    13:00 +29°C° 0.1 mm 3 mps 747 mmHg 50%
    14:00 +29°C° 0 mm 2 mps 747 mmHg 48%
    15:00 +29°C° 0 mm 2 mps 747 mmHg 47%
    16:00 +29°C° 0 mm 2 mps 747 mmHg 46%
    17:00 +28°C° 0 mm 2 mps 747 mmHg 52%
    18:00 +27°C° 0 mm 1 mps 747 mmHg 57%
    19:00 +26°C° 0 mm 1 mps 747 mmHg 62%
    20:00 +25°C° 0 mm 1 mps 747 mmHg 65%
    21:00 +23°C° 0 mm 2 mps 747 mmHg 68%
    22:00 +21°C° 0 mm 2 mps 747 mmHg 71%
    23:00 +21°C° 0.4 mm 2 mps 747 mmHg 74%

    Day after tomorrow, 21 July, Sunday

    Time Temperature Precipitation Wind Pressure Humidity
    00:00 +21°C° 0.4 mm 2 mps 747 mmHg 78%
    01:00 +20°C° 0.4 mm 2 mps 747 mmHg 82%
    02:00 +20°C° 0.8 mm 2 mps 747 mmHg 83%
    03:00 +20°C° 0.8 mm 3 mps 747 mmHg 84%
    04:00 +20°C° 0.8 mm 3 mps 747 mmHg 86%
    05:00 +21°C° 0 mm 3 mps 747 mmHg 83%
    06:00 +23°C° 0 mm 2 mps 747 mmHg 79%
    07:00 +25°C° 0 mm 2 mps 747 mmHg 76%
    08:00 +26°C° 0.2 mm 3 mps 747 mmHg 71%
    09:00 +27°C° 0.2 mm 3 mps 748 mmHg 66%
    10:00 +28°C° 0.2 mm 4 mps 748 mmHg 61%
    11:00 +27°C° 1.4 mm 4 mps 748 mmHg 62%
    12:00 +27°C° 1.4 mm 4 mps 748 mmHg 64%
    13:00 +27°C° 1.4 mm 4 mps 748 mmHg 66%
    14:00 +27°C° 0.7 mm 4 mps 749 mmHg 65%
    15:00 +27°C° 0.7 mm 5 mps 749 mmHg 65%
    16:00 +26°C° 0.7 mm 5 mps 749 mmHg 65%
    17:00 +25°C° 0.1 mm 5 mps 749 mmHg 68%
    18:00 +23°C° 0.1 mm 4 mps 749 mmHg 71%
    19:00 +22°C° 0.1 mm 4 mps 749 mmHg 74%
    20:00 +21°C° 0 mm 4 mps 750 mmHg 75%
    21:00 +20°C° 0 mm 3 mps 751 mmHg 76%
    22:00 +19°C° 0 mm 3 mps 751 mmHg 77%
    23:00 +18°C° 0 mm 3 mps 751 mmHg 79%

    22 July, Monday

    Time Temperature Precipitation Wind Pressure Humidity
    00:00 +18°C° 0 mm 3 mps 752 mmHg 80%
    01:00 +17°C° 0 mm 3 mps 752 mmHg 81%
    02:00 +17°C° 0 mm 3 mps 752 mmHg 82%
    03:00 +17°C° 0 mm 2 mps 752 mmHg 83%
    04:00 +16°C° 0 mm 2 mps 752 mmHg 84%
    05:00 +17°C° 0 mm 3 mps 752 mmHg 81%
    06:00 +18°C° 0 mm 3 mps 753 mmHg 78%
    07:00 +20°C° 0 mm 4 mps 753 mmHg 75%
    08:00 +20°C° 0 mm 4 mps 753 mmHg 70%
    09:00 +21°C° 0 mm 4 mps 753 mmHg 65%
    10:00 +22°C° 0 mm 4 mps 753 mmHg 61%
    11:00 +23°C° 0 mm 5 mps 753 mmHg 58%
    12:00 +25°C° 0 mm 5 mps 753 mmHg 55%
    13:00 +25°C° 0 mm 5 mps 753 mmHg 52%
    14:00 +25°C° 0 mm 5 mps 753 mmHg 52%
    15:00 +25°C° 0 mm 5 mps 753 mmHg 51%
    16:00 +25°C° 0 mm 5 mps 752 mmHg 51%
    17:00 +23°C° 0 mm 4 mps 752 mmHg 54%
    18:00 +22°C° 0 mm 4 mps 752 mmHg 58%
    19:00 +21°C° 0 mm 3 mps 752 mmHg 61%
    20:00 +20°C° 0 mm 3 mps 752 mmHg 61%
    21:00 +20°C° 0 mm 2 mps 753 mmHg 62%
    22:00 +19°C° 0 mm 2 mps 753 mmHg 62%
    23:00 +19°C° 0 mm 2 mps 753 mmHg 63%

    23 July, Tuesday

    Time Temperature Precipitation Wind Pressure Humidity
    00:00 +19°C° 0 mm 2 mps 753 mmHg 63%
    01:00 +18°C° 0 mm 2 mps 752 mmHg 63%
    02:00 +18°C° 0 mm 2 mps 752 mmHg 64%
    03:00 +18°C° 0 mm 2 mps 752 mmHg 64%
    04:00 +18°C° 0 mm 2 mps 752 mmHg 65%
    05:00 +18°C° 0 mm 2 mps 752 mmHg 66%
    06:00 +18°C° 0 mm 2 mps 752 mmHg 66%
    07:00 +19°C° 0 mm 2 mps 752 mmHg 67%
    08:00 +20°C° 0 mm 3 mps 752 mmHg 64%
    09:00 +21°C° 0 mm 3 mps 752 mmHg 61%
    10:00 +22°C° 0 mm 4 mps 752 mmHg 57%
    11:00 +24°C° 0 mm 3 mps 752 mmHg 55%
    12:00 +25°C° 0 mm 3 mps 752 mmHg 53%
    13:00 +26°C° 0 mm 3 mps 751 mmHg 51%
    14:00 +26°C° 0 mm 3 mps 751 mmHg 52%
    15:00 +27°C° 0 mm 3 mps 751 mmHg 52%
    16:00 +27°C° 0 mm 3 mps 751 mmHg 53%
    17:00 +27°C° 0 mm 3 mps 751 mmHg 58%
    18:00 +26°C° 0 mm 2 mps 751 mmHg 63%
    19:00 +25°C° 0 mm 1 mps 750 mmHg 68%
    20:00 +24°C° 0 mm 1 mps 750 mmHg 72%
    21:00 +23°C° 0 mm 1 mps 751 mmHg 76%
    22:00 +19°C° 0 mm 0 mps 751 mmHg 80%
    23:00 +21°C° 0 mm 1 mps 751 mmHg 81%

    24 July, Wednesday

    Time Temperature Precipitation Wind Pressure Humidity
    00:00 +21°C° 0 mm 1 mps 751 mmHg 83%
    01:00 +20°C° 0 mm 1 mps 751 mmHg 84%
    02:00 +20°C° 0 mm 1 mps 750 mmHg 85%
    03:00 +20°C° 0 mm 1 mps 750 mmHg 86%
    04:00 +20°C° 0 mm 1 mps 750 mmHg 88%
    05:00 +21°C° 0 mm 1 mps 750 mmHg 82%
    06:00 +23°C° 0 mm 1 mps 750 mmHg 76%
    07:00 +25°C° 0 mm 1 mps 751 mmHg 71%
    08:00 +26°C° 0 mm 2 mps 750 mmHg 66%
    09:00 +27°C° 0 mm 2 mps 750 mmHg 61%
    10:00 +29°C° 0 mm 2 mps 750 mmHg 56%
    11:00 +30°C° 0 mm 3 mps 750 mmHg 51%
    12:00 +30°C° 0 mm 3 mps 750 mmHg 46%
    13:00 +31°C° 0 mm 3 mps 750 mmHg 41%
    14:00 +33°C° 0 mm 3 mps 750 mmHg 40%
    15:00 +33°C° 0 mm 3 mps 749 mmHg 39%
    16:00 +33°C° 0 mm 3 mps 749 mmHg 39%
    17:00 +30°C° 0 mm 2 mps 749 mmHg 45%
    18:00 +29°C° 0 mm 2 mps 749 mmHg 51%
    19:00 +27°C° 0 mm 1 mps 749 mmHg 57%
    20:00 +26°C° 0 mm 1 mps 749 mmHg 60%
    21:00 +24°C° 0 mm 1 mps 750 mmHg 63%
    22:00 +22°C° 0 mm 1 mps 750 mmHg 66%
    23:00 +22°C° 0 mm 1 mps 750 mmHg 67%
    Show more